OBJECT XU, 66908

Orbit data source: Space-Track

You're viewing an Uncataloged Satellite

Recently launched and/or uncataloged satellites may have evolving metadata. Metadata may include but not limited to: Owner, Maufacturer, Bus, Motor, and Mission.

OBJECT XU, 66908 is an American satellite in LEO that was delivered to and deployed from the ISS. Unknown objects in Earth's orbit typically refer to objects detected orbiting the Earth but have not yet been identified or cataloged. These objects could be anything from previously untracked satellites, spent rocket stages, debris from satellite collisions, or even natural meteoroids temporarily captured by Earth's gravity.

Loading next visibility...
Identifier
66908, 1998-067XU
Orbit
LEO
Country
Flag of USUS
Related business
None
Manufacturer
Unknown
Mission
Operational Amateur Technology
Bus & Motor
Unknown
Mass
Unknown
Launch date (UTC)
1998-11-20 (27 years ago)
Launch vehicle
FALCON 9
Launch site
Tyuratam Missile And Space Complex (TTMTR)
Object type
Unknown
Shape & HBR
Box, 1.1 m
Radar Cross Section
0.035 m²

Expand to show TLE details & history
Last TLE update: 16 hours ago

TLE from 16 hours ago
0 OBJECT XU
1 66908U 98067XU  26035.56076192  .00100287  00000-0  11761-2 0  9997
2 66908  51.6255 233.4362 0002116 187.7301 172.3660 15.60694624  9990
Epoch: 2026-02-04T13:27Z
TLE epoch observation values (Epoch: 2026-02-04T13:27:29.829Z)
Latitude
-0.00004°
Longitude
-103.1637°
Altitude
387.811 km
Speed
7.678 km/s
True Right ascension
15h 33m 44s
True Declination
0° 00' 00"
Sunlit
Object was in daylight at epoch
Visualization orbit readout
Latitude
Unknown
Longitude
Unknown
Altitude
Unknown
Speed
Unknown
Apparent Right ascension
Unknown
Apparent Declination
Unknown
Sunlit
N/A
Visualization observer readout
Local Sidereal Time
07:29:34
Azimuth
Unknown
Elevation
Unknown
Doppler factor
Unknown
Orbital elements
Apogee altitude
387.593 km
Perigee altitude
384.731 km
Semi-major axis
6,764.299 km
Eccentricity
0.00021
Inclination
51.6255°
RAAN
233.4362°
Arg. of periapsis
187.7301°
True anomaly
172.36922°
Mean anomaly
172.366°
Eccentric anomaly
172.36761°
Mean motion
3.9013 °/min
Orbital period
92.28 mins
BSTAR
0.0011761
Loading maneuver chart data...
Computing Atmospheric mass density...
Loading historical data...
Loading historical data...
Loading historical data...
Loading historical data...
Loading historical data...
Loading historical data...
Loading historical data...

Documentation

Showing up to 5 results
|